User: anonymous   Login
Location: Mentone
(34.5413°N, 85.5351°W)
Time: 01:15:53
(UTC-06:00)
Language:

UOSAT-12 - Orbit

View from above orbital plane
View from above orbital plane
View from above satellite
View from above satellite

Ground track
Ground track

The orbit data is extracted from the following two-line orbital elements,

1 25693U 99021A   17347.16040607 -.00000056  00000-0  11984-4 0  9991
2 25693  64.5564 294.0595 0046387 288.6072  70.9998 14.80774537  6668
Epoch (UTC): 13 December 2017 03:50:59
Eccentricity: 0.0046387
inclination: 64.5564°
perigee height: 594 km
apogee height: 659 km
right ascension of ascending node: 294.0595°
argument of perigee: 288.6072°
revolutions per day: 14.80774537
mean anomaly at epoch: 70.9998°
orbit number at epoch: 666

The dashed part of the orbit path shows where the satellite is in the earth's shadow,  

DLR